Flag Weather past 2 weeks in Coquitlam, British Columbia, Canada

Now
51 °F

Cool.


Feels Like: 50 °F
Forecast: 46 / 54 °F
Wind: 5 mph from Southwest

Location: P. Meadows Coastal Station

Current Time: Oct 31, 2014 at 2:46:56 PM

Latest Report: Oct 31, 2014 at 2:00 PM


Visibility: N/A

Pressure: 29.79 "Hg

Humidity: 91%

Dew point: 49 °F

Location of CoquitlamLocation

Historic Weather in Coquitlam — Graph

°F

Coquitlam temperature yesterday

Maximum temperature yesterday: 55 °F (at 9:00 PM)
Minimum temperature yesterday: 51 °F (at 9:00 AM)
Average temperature yesterday: 53 °F

Past Weeks' High & Low Weather Summary

 TemperatureHumidityPressure
High71 °F (Oct 19, 1:00 PM)100% (Oct 17, 1:00 AM)30.15 "Hg (Oct 17, 1:00 AM)
Low41 °F (Oct 26, 6:00 AM)54% (Oct 19, 1:00 PM)29.25 "Hg (Oct 25, 8:00 PM)
Average54 °F89%29.82 "Hg
* Reported Oct 16 1:00 PM — Oct 31 1:00 PM, Coquitlam, Weather by CustomWeather, © 2014

Note: Actual official high and low records may vary slightly from our data, if they occured in-between our weather recording intervals... More about our weather records

Advertising

Coquitlam weather history for previous 24 hours

 ConditionsComfort  
Time TempWeatherWind HumidityBarometerVisibility
1:00 PM
Oct 31
52 °FCool.3 mph94%29.78 "HgN/A
12:00 PM52 °FCool.2 mph90%29.76 "HgN/A
11:00 AM52 °FCool.1 mph97%29.75 "HgN/A
9:00 AM51 °FCool.1 mph98%29.72 "HgN/A
8:00 AM50 °FCool.1 mph99%29.71 "HgN/A
7:00 AM51 °FCool.No wind99%29.70 "HgN/A
6:00 AM50 °FCool.2 mph99%29.71 "HgN/A
5:00 AM50 °FCool.1 mph98%29.72 "HgN/A
4:00 AM49 °FCool.1 mph100%29.73 "HgN/A
3:00 AM51 °FCool.2 mph97%29.75 "HgN/A
2:00 AM51 °FCool.1 mph97%29.76 "HgN/A
1:00 AM52 °FCool.3 mph97%29.77 "HgN/A
12:00 AM53 °FCool.2 mph97%29.76 "HgN/A
11:00 PM
Oct 30
54 °FCool.2 mph94%29.77 "HgN/A
10:00 PM55 °FCool.2 mph95%29.75 "HgN/A
9:00 PM55 °FCool.3 mph95%29.71 "HgN/A
8:00 PM53 °FCool.2 mph100%29.70 "HgN/A
7:00 PM54 °FCool.3 mph97%29.69 "HgN/A
6:00 PM54 °FCool.1 mph97%29.69 "HgN/A
5:00 PM54 °FCool.2 mph96%29.70 "HgN/A
4:00 PM54 °FCool.2 mph97%29.72 "HgN/A
3:00 PM54 °FCool.3 mph97%29.75 "HgN/A
2:00 PM53 °FCool.3 mph96%29.78 "HgN/A
Weather by CustomWeather, © 2014

See weather overviewHow to use our weather pages